Overview Statistics Trail Chart Weather Telemetry Raw packets
 

This is the latest recevied weather packets stored in our database for station/object EB1BWO-11. If no packets are shown the sender has not sent any weather packets the latest 10 day(s).

<< 20 21 22 23 24 25 26 >>
Time Temp. Humidity Pressure Rain* Wind** Luminosity Snow
1788112725 22.78° C 58% 1022.6 hPa - - - -
1788111824 23.33° C 57% 1022.4 hPa - - - -
1788110924 23.33° C 58% 1022.5 hPa - - - -
1788110024 23.33° C 57% 1022.4 hPa - - - -
1788109124 23.89° C 58% 1022.3 hPa - - - -
1788108224 23.33° C 58% 1022.1 hPa - - - -
1788107324 23.33° C 58% 1022.2 hPa - - - -
1788106424 23.89° C 58% 1022.1 hPa - - - -
1788105523 23.89° C 56% 1022.1 hPa - - - -
1788104623 24.44° C 56% 1022 hPa - - - -
1788103723 23.89° C 57% 1022 hPa - - - -
1788102823 23.33° C 59% 1022 hPa - - - -
1788101923 22.78° C 60% 1022.2 hPa - - - -
1788101023 21.67° C 61% 1022.1 hPa - - - -
1788100123 22.78° C 59% 1022.1 hPa - - - -
1788099223 22.78° C 59% 1022.2 hPa - - - -
1788098322 22.78° C 59% 1022.2 hPa - - - -
1788097422 22.78° C 60% 1022.1 hPa - - - -
1788096522 22.78° C 60% 1022.1 hPa - - - -
1788095622 22.78° C 60% 1022.1 hPa - - - -
1788094722 23.33° C 60% 1022 hPa - - - -
1788093822 22.78° C 60% 1021.9 hPa - - - -
1788092922 22.78° C 62% 1022 hPa - - - -
1788092021 22.78° C 61% 1022 hPa - - - -
1788091121 22.22° C 62% 1021.9 hPa - - - -

* Rain since midnight (hover to see other rain measurements)
** Current wind speed in m/s (hover to see current wind gust speed)